Regional Weather Roundup
Issued by NWS Sioux Falls, SD

Home | Current Version | Previous Version | Graphics & Text | Print | Product List | Glossary On
Versions: 1 2 3 4 5 6 7 8 9 10 11 12 13 14 15 16 17 18 19 20 21 22 23 24 25 26 27 28 29 30 31 32 33 34 35 36 37 38 39 40 41 42 43 44 45 46 47 48 49 50
000
ASUS43 KFSD 260202
RWRFSD

WEATHER ROUNDUP FOR SE SOUTH DAKOTA/SW MINNESOTA/NW IOWA
NATIONAL WEATHER SERVICE SIOUX FALLS SD
900 PM CDT FRI JUL 25 2014

NOTE: "FAIR" INDICATES FEW OR NO CLOUDS BELOW 12,000 FEET WITH NO
SIGNIFICANT WEATHER AND OR OBSTRUCTIONS TO VISIBILITY.


SDZ038>040-050-052>070-260300-
SOUTHEAST SOUTH DAKOTA

CITY           SKY/WX    TMP DP  RH WIND       PRES   REMARKS
CHAMBERLAIN    CLEAR     77  68  73 E6        29.82R
HURON          CLEAR     74  67  78 NE5       29.81R
MADISON        FAIR      73  73 100 N7        29.82R
MITCHELL       CLEAR     77  68  73 N8        29.80R
SIOUX FALLS    MOCLDY    80  70  71 CALM      29.78R
WINNER         FAIR      81  68  64 NE6       29.83R
YANKTON        PTCLDY    79  73  83 NE3       29.78R
$$

MNZ071-072-080-081-089-090-097-098-260300-
SOUTHWEST MINNESOTA

CITY           SKY/WX    TMP DP  RH WIND       PRES   REMARKS
FAIRMONT       CLEAR     73  61  64 S6        29.79R
JACKSON        CLEAR     73  68  83 S5        29.81R
LUVERNE        CLEAR     79  72  78 CALM      29.79R
MARSHALL       CLOUDY    75  70  83 N6        29.77
MONTEVIDEO     PTCLDY    75  72  88 N7        29.78S
PIPESTONE      MOCLDY    81  70  69 CALM      29.80S
REDWOOD FALLS  CLOUDY    79  72  79 NW5       29.76R
TRACY          MOCLDY    77  73  86 CALM      29.78R
WINDOM         MOCLDY    79  72  78 S3        29.79R
WORTHINGTON    CLEAR     75  72  88 S5        29.81R
$$

IAZ001>003-012>014-020>022-031-032-NEZ013-014-SDZ071-260300-
NORTHWEST IOWA

CITY           SKY/WX    TMP DP  RH WIND       PRES   REMARKS
CHEROKEE       CLOUDY    76  72  87 E6        29.78R
DENISON        MOCLDY    79  77  94 E5        29.75R
ESTHERVILLE    CLOUDY    74  71  91 CALM      29.80R
LE MARS        CLOUDY    79  73  83 SE7       29.79R
SIOUX CITY     CLOUDY    82  73  74 E7        29.76R
SPENCER        CLOUDY    76  70  82 CALM      29.79S
STORM LAKE     CLOUDY    73  73 100 SE5       29.80S
$$

ABBREVIATIONS USED IN REMARKS
   TC - TEMPERATURE IN CELSIUS
  WCI - WIND CHILL INDEX
   HX - HEAT INDEX
  VSB - VISIBILITY



USA.gov is the U.S. government's official web portal to all federal, state and local government web resources and services.